Time,TemperatureF,DewpointF,PressureIn,WindDirection,WindDirectionDegrees,WindSpeedMPH,WindSpeedGustMPH,Humidity,HourlyPrecipIn,Conditions,Clouds,dailyrainin,SoftwareType,DateUTC
2013-02-12 00:01:00,46.2,45.1,30.28,South,185,0.0,0.0,96,0.00,CLR,,0.00,WeatherDisplay:10.37,2013-02-12 08:01:00,
2013-02-12 00:06:00,46.2,45.1,30.28,SSW,195,3.5,3.5,96,0.00,CLR,,0.00,WeatherDisplay:10.37,2013-02-12 08:06:00,
2013-02-12 00:11:00,46.2,45.1,30.28,SSW,195,0.0,0.0,96,0.00,CLR,,0.00,WeatherDisplay:10.37,2013-02-12 08:11:00,
2013-02-12 00:16:00,46.2,45.1,30.28,SSW,195,0.0,0.0,96,0.00,CLR,,0.00,WeatherDisplay:10.37,2013-02-12 08:16:00,
2013-02-12 00:21:00,46.2,45.1,30.28,South,191,3.5,3.5,96,0.00,CLR,,0.00,WeatherDisplay:10.37,2013-02-12 08:21:00,
2013-02-12 00:26:00,46.2,45.1,30.29,South,188,0.0,0.0,96,0.00,CLR,,0.00,WeatherDisplay:10.37,2013-02-12 08:26:00,
2013-02-12 00:31:00,46.1,45.0,30.29,South,188,0.0,0.0,96,0.00,CLR,,0.00,WeatherDisplay:10.37,2013-02-12 08:31:00,
2013-02-12 00:36:00,46.1,45.0,30.29,South,188,0.0,0.0,96,0.00,CLR,,0.00,WeatherDisplay:10.37,2013-02-12 08:36:00,
2013-02-12 00:41:00,46.1,45.0,30.29,South,188,0.0,0.0,96,0.00,CLR,,0.00,WeatherDisplay:10.37,2013-02-12 08:41:00,
2013-02-12 00:46:00,46.1,45.0,30.29,South,188,0.0,0.0,96,0.00,CLR,,0.00,WeatherDisplay:10.37,2013-02-12 08:46:00,
2013-02-12 00:51:00,46.0,44.9,30.29,South,188,0.0,0.0,96,0.00,CLR,,0.00,WeatherDisplay:10.37,2013-02-12 08:51:00,
2013-02-12 00:56:00,45.9,44.8,30.28,South,188,0.0,0.0,96,0.00,CLR,,0.00,WeatherDisplay:10.37,2013-02-12 08:56:00,
2013-02-12 01:01:00,45.9,44.8,30.29,South,188,0.0,0.0,96,0.00,CLR,,0.00,WeatherDisplay:10.37,2013-02-12 09:01:00,
2013-02-12 01:06:00,46.1,45.0,30.29,SSE,162,3.5,3.5,96,0.00,CLR,,0.00,WeatherDisplay:10.37,2013-02-12 09:06:00,
2013-02-12 01:11:00,46.2,45.1,30.29,SSE,162,0.0,0.0,96,0.00,CLR,,0.00,WeatherDisplay:10.37,2013-02-12 09:11:00,
2013-02-12 01:16:00,46.2,45.1,30.29,SSW,196,3.5,3.5,96,0.00,CLR,,0.00,WeatherDisplay:10.37,2013-02-12 09:16:00,
2013-02-12 01:21:00,46.1,45.0,30.29,South,185,4.6,4.6,96,0.00,CLR,,0.00,WeatherDisplay:10.37,2013-02-12 09:21:00,
2013-02-12 01:26:00,46.1,45.0,30.29,South,188,0.0,0.0,96,0.00,CLR,,0.00,WeatherDisplay:10.37,2013-02-12 09:26:00,
2013-02-12 01:31:00,46.2,45.1,30.29,South,176,4.0,4.0,96,0.00,CLR,,0.00,WeatherDisplay:10.37,2013-02-12 09:31:00,
2013-02-12 01:36:00,46.2,45.1,30.29,SSW,198,3.5,3.5,96,0.00,CLR,,0.00,WeatherDisplay:10.37,2013-02-12 09:36:00,
2013-02-12 01:41:00,46.3,45.2,30.29,South,191,0.0,0.0,96,0.00,CLR,,0.00,WeatherDisplay:10.37,2013-02-12 09:41:00,
2013-02-12 01:46:00,46.3,45.2,30.29,SSW,210,2.3,2.3,96,0.00,CLR,,0.00,WeatherDisplay:10.37,2013-02-12 09:46:00,
2013-02-12 01:51:00,46.3,45.2,30.29,SSW,206,3.5,3.5,96,0.00,CLR,,0.00,WeatherDisplay:10.37,2013-02-12 09:51:00,
2013-02-12 01:56:00,46.3,45.2,30.29,South,182,4.6,4.6,96,0.00,CLR,,0.00,WeatherDisplay:10.37,2013-02-12 09:56:00,
2013-02-12 02:01:00,46.4,45.3,30.30,South,175,3.5,0.0,96,0.00,CLR,,0.00,WeatherDisplay:10.37,2013-02-12 10:01:00,
2013-02-12 02:06:00,46.4,45.3,30.30,SSW,213,2.3,0.0,96,0.00,CLR,,0.00,WeatherDisplay:10.37,2013-02-12 10:06:00,
2013-02-12 02:11:00,46.4,45.3,30.30,South,175,2.3,2.3,96,0.00,CLR,,0.00,WeatherDisplay:10.37,2013-02-12 10:11:00,
2013-02-12 02:16:00,46.4,45.3,30.30,SSW,199,2.3,0.0,96,0.00,CLR,,0.00,WeatherDisplay:10.37,2013-02-12 10:16:00,
2013-02-12 02:21:00,46.3,45.2,30.30,SSW,192,4.6,4.6,96,0.00,CLR,,0.00,WeatherDisplay:10.37,2013-02-12 10:21:00,
2013-02-12 02:26:00,46.3,45.2,30.30,SSW,203,4.6,4.6,96,0.00,CLR,,0.00,WeatherDisplay:10.37,2013-02-12 10:26:00,
2013-02-12 02:31:00,46.3,45.2,30.30,South,184,3.5,3.5,96,0.00,CLR,,0.00,WeatherDisplay:10.37,2013-02-12 10:31:00,
2013-02-12 02:36:00,46.3,45.2,30.30,SSW,196,3.5,3.5,96,0.00,CLR,,0.00,WeatherDisplay:10.37,2013-02-12 10:36:00,
2013-02-12 02:41:00,46.2,45.1,30.30,South,188,5.8,5.8,96,0.00,CLR,,0.00,WeatherDisplay:10.37,2013-02-12 10:41:00,
2013-02-12 02:46:00,46.2,45.1,30.30,SSW,213,4.6,4.6,96,0.00,CLR,,0.00,WeatherDisplay:10.37,2013-02-12 10:46:00,
2013-02-12 02:51:00,46.2,45.1,30.30,SSW,205,6.9,6.9,96,0.00,CLR,,0.00,WeatherDisplay:10.37,2013-02-12 10:51:00,
2013-02-12 02:56:00,46.2,45.1,30.30,SSW,192,5.8,5.8,96,0.00,CLR,,0.00,WeatherDisplay:10.37,2013-02-12 10:56:00,
2013-02-12 03:01:00,46.2,45.1,30.30,SSW,200,5.8,5.8,96,0.00,CLR,,0.00,WeatherDisplay:10.37,2013-02-12 11:01:00,
2013-02-12 03:06:00,46.0,44.9,30.29,SSE,164,8.1,8.1,96,0.00,CLR,,0.00,WeatherDisplay:10.37,2013-02-12 11:06:00,
2013-02-12 03:11:00,46.0,44.9,30.29,SSW,198,6.2,6.2,96,0.00,CLR,,0.00,WeatherDisplay:10.37,2013-02-12 11:11:00,
2013-02-12 03:16:00,45.9,44.8,30.29,South,182,5.8,5.8,96,0.00,CLR,,0.00,WeatherDisplay:10.37,2013-02-12 11:16:00,
2013-02-12 03:21:00,45.9,44.8,30.29,SSE,151,0.0,0.0,96,0.00,CLR,,0.00,WeatherDisplay:10.37,2013-02-12 11:21:00,
2013-02-12 03:26:00,45.8,44.7,30.29,SW,215,3.5,3.5,96,0.00,CLR,,0.00,WeatherDisplay:10.37,2013-02-12 11:26:00,
2013-02-12 03:31:00,45.8,45.0,30.29,South,189,2.5,0.0,97,0.00,CLR,,0.00,WeatherDisplay:10.37,2013-02-12 11:31:00,
2013-02-12 03:36:00,45.9,45.1,30.29,SW,223,5.8,5.8,97,0.00,CLR,,0.00,WeatherDisplay:10.37,2013-02-12 11:36:00,
2013-02-12 03:41:00,45.9,45.1,30.29,SSW,192,3.5,3.5,97,0.00,CLR,,0.00,WeatherDisplay:10.37,2013-02-12 11:41:00,
2013-02-12 03:46:00,45.9,45.1,30.29,SSW,193,3.5,3.5,97,0.00,CLR,,0.00,WeatherDisplay:10.37,2013-02-12 11:46:00,
2013-02-12 03:51:00,46.0,45.2,30.29,SE,126,4.6,4.6,97,0.00,CLR,,0.00,WeatherDisplay:10.37,2013-02-12 11:51:00,
2013-02-12 03:56:00,46.1,45.3,30.29,SW,220,3.5,0.0,97,0.00,CLR,,0.00,WeatherDisplay:10.37,2013-02-12 11:56:00,
2013-02-12 04:01:00,45.9,45.1,30.29,South,189,8.1,8.1,97,0.00,CLR,,0.00,WeatherDisplay:10.37,2013-02-12 12:01:00,
2013-02-12 04:06:00,46.0,45.2,30.30,SSW,193,3.5,0.0,97,0.00,CLR,,0.00,WeatherDisplay:10.37,2013-02-12 12:06:00,
2013-02-12 04:11:00,46.0,45.2,30.30,SW,236,2.1,2.1,97,0.00,CLR,,0.00,WeatherDisplay:10.37,2013-02-12 12:11:00,
2013-02-12 04:16:00,45.9,45.1,30.29,SSE,151,4.6,4.6,97,0.00,CLR,,0.00,WeatherDisplay:10.37,2013-02-12 12:16:00,
2013-02-12 04:21:00,46.0,45.2,30.29,South,176,0.0,0.0,97,0.00,CLR,,0.00,WeatherDisplay:10.37,2013-02-12 12:21:00,
2013-02-12 04:26:00,46.0,45.2,30.30,South,174,2.3,2.3,97,0.00,CLR,,0.00,WeatherDisplay:10.37,2013-02-12 12:26:00,
2013-02-12 04:31:00,45.9,45.1,30.30,South,181,4.6,4.6,97,0.00,CLR,,0.00,WeatherDisplay:10.37,2013-02-12 12:31:00,
2013-02-12 04:36:00,46.0,45.2,30.30,South,186,0.0,0.0,97,0.00,CLR,,0.00,WeatherDisplay:10.37,2013-02-12 12:36:00,
2013-02-12 04:41:00,46.0,45.2,30.30,SSW,198,2.3,0.0,97,0.00,CLR,,0.00,WeatherDisplay:10.37,2013-02-12 12:41:00,
2013-02-12 04:46:00,46.1,45.3,30.30,SSE,168,1.2,0.0,97,0.00,CLR,,0.00,WeatherDisplay:10.37,2013-02-12 12:46:00,
2013-02-12 04:51:00,46.1,45.3,30.30,ESE,103,4.6,4.6,97,0.00,CLR,,0.00,WeatherDisplay:10.37,2013-02-12 12:51:00,
2013-02-12 04:56:00,46.1,45.3,30.30,ESE,103,0.0,0.0,97,0.00,CLR,,0.00,WeatherDisplay:10.37,2013-02-12 12:56:00,
2013-02-12 05:01:00,46.2,45.4,30.30,South,186,4.6,4.6,97,0.00,CLR,,0.00,WeatherDisplay:10.37,2013-02-12 13:01:00,
2013-02-12 05:06:00,46.1,45.3,30.29,South,186,1.2,0.0,97,0.00,CLR,,0.00,WeatherDisplay:10.37,2013-02-12 13:06:00,
2013-02-12 05:11:00,46.1,45.3,30.29,South,179,3.5,3.5,97,0.00,CLR,,0.00,WeatherDisplay:10.37,2013-02-12 13:11:00,
2013-02-12 05:16:00,46.1,45.3,30.29,South,191,4.8,4.8,97,0.00,CLR,,0.00,WeatherDisplay:10.37,2013-02-12 13:16:00,
2013-02-12 05:21:00,46.2,45.4,30.29,SSW,199,0.0,0.0,97,0.00,CLR,,0.00,WeatherDisplay:10.37,2013-02-12 13:21:00,
2013-02-12 05:26:00,46.0,45.2,30.29,SSE,164,5.8,5.8,97,0.00,CLR,,0.00,WeatherDisplay:10.37,2013-02-12 13:26:00,
2013-02-12 05:31:00,46.1,45.3,30.29,SSE,148,3.5,0.0,97,0.00,CLR,,0.00,WeatherDisplay:10.37,2013-02-12 13:31:00,
2013-02-12 05:36:00,46.0,45.2,30.29,SSW,195,2.3,2.3,97,0.00,CLR,,0.00,WeatherDisplay:10.37,2013-02-12 13:36:00,
2013-02-12 05:41:00,46.0,45.2,30.29,South,176,1.2,0.0,97,0.00,CLR,,0.00,WeatherDisplay:10.37,2013-02-12 13:41:00,
2013-02-12 05:46:00,45.9,45.1,30.29,South,186,5.4,5.4,97,0.00,CLR,,0.00,WeatherDisplay:10.37,2013-02-12 13:46:00,
2013-02-12 05:51:00,46.0,45.2,30.29,SW,233,4.6,4.6,97,0.00,CLR,,0.00,WeatherDisplay:10.37,2013-02-12 13:51:00,
2013-02-12 05:56:00,46.0,45.2,30.29,South,169,0.0,0.0,97,0.00,CLR,,0.00,WeatherDisplay:10.37,2013-02-12 13:56:00,
2013-02-12 06:01:00,46.0,45.2,30.30,WSW,247,4.6,4.6,97,0.00,CLR,,0.00,WeatherDisplay:10.37,2013-02-12 14:01:00,
2013-02-12 06:06:00,45.9,45.1,30.30,South,189,3.5,3.5,97,0.00,CLR,,0.00,WeatherDisplay:10.37,2013-02-12 14:06:00,
2013-02-12 06:11:00,45.9,45.1,30.30,SSW,193,8.1,8.1,97,0.00,CLR,,0.00,WeatherDisplay:10.37,2013-02-12 14:11:00,
2013-02-12 06:16:00,46.0,45.2,30.30,South,174,4.6,4.6,97,0.00,CLR,,0.00,WeatherDisplay:10.37,2013-02-12 14:16:00,
2013-02-12 06:21:00,45.9,45.1,30.30,SSE,164,3.5,3.5,97,0.00,CLR,,0.00,WeatherDisplay:10.37,2013-02-12 14:21:00,
2013-02-12 06:26:00,46.0,45.2,30.30,SSE,162,0.0,0.0,97,0.00,CLR,,0.00,WeatherDisplay:10.37,2013-02-12 14:26:00,
2013-02-12 06:31:00,45.8,45.0,30.30,South,185,2.4,2.4,97,0.00,CLR,,0.00,WeatherDisplay:10.37,2013-02-12 14:31:00,
2013-02-12 06:36:00,45.9,45.1,30.30,SSE,158,3.5,3.5,97,0.00,CLR,,0.00,WeatherDisplay:10.37,2013-02-12 14:36:00,
2013-02-12 06:41:00,45.8,45.0,30.30,South,176,5.8,5.8,97,0.00,CLR,,0.00,WeatherDisplay:10.37,2013-02-12 14:41:00,
2013-02-12 06:46:00,45.7,44.9,30.30,South,182,0.0,0.0,97,0.00,CLR,,0.00,WeatherDisplay:10.37,2013-02-12 14:46:00,
2013-02-12 06:51:00,45.7,44.9,30.30,South,186,1.2,0.0,97,0.00,CLR,,0.00,WeatherDisplay:10.37,2013-02-12 14:51:00,
2013-02-12 06:56:00,45.7,44.9,30.30,South,189,0.0,0.0,97,0.00,CLR,,0.00,WeatherDisplay:10.37,2013-02-12 14:56:00,
2013-02-12 07:01:00,45.9,45.1,30.30,SSW,196,0.0,0.0,97,0.00,CLR,,0.00,WeatherDisplay:10.37,2013-02-12 15:01:00,
2013-02-12 07:06:00,45.8,45.0,30.31,SSW,196,0.0,0.0,97,0.00,CLR,,0.00,WeatherDisplay:10.37,2013-02-12 15:06:00,
2013-02-12 07:11:00,45.8,45.0,30.31,SSW,196,0.0,0.0,97,0.00,CLR,,0.00,WeatherDisplay:10.37,2013-02-12 15:11:00,
2013-02-12 07:16:00,45.9,45.1,30.31,SSW,196,0.0,0.0,97,0.00,CLR,,0.00,WeatherDisplay:10.37,2013-02-12 15:16:00,
2013-02-12 07:21:00,45.9,45.1,30.31,SSW,196,0.0,0.0,97,0.00,CLR,,0.00,WeatherDisplay:10.37,2013-02-12 15:21:00,
2013-02-12 07:26:00,46.0,45.2,30.31,SSW,196,0.0,0.0,97,0.00,CLR,,0.00,WeatherDisplay:10.37,2013-02-12 15:26:00,
2013-02-12 07:31:00,46.0,45.2,30.31,SSW,196,0.0,0.0,97,0.00,CLR,,0.00,WeatherDisplay:10.37,2013-02-12 15:31:00,
2013-02-12 07:36:00,46.0,45.2,30.31,SSE,168,4.6,4.6,97,0.00,CLR,,0.00,WeatherDisplay:10.37,2013-02-12 15:36:00,
2013-02-12 07:41:00,46.0,45.2,30.31,SSW,199,4.6,4.6,97,0.00,CLR,,0.00,WeatherDisplay:10.37,2013-02-12 15:41:00,
2013-02-12 07:46:00,46.1,45.3,30.31,SSW,205,4.6,4.6,97,0.00,CLR,,0.00,WeatherDisplay:10.37,2013-02-12 15:46:00,
2013-02-12 07:51:00,46.1,45.3,30.32,SW,229,5.8,5.8,97,0.00,CLR,,0.00,WeatherDisplay:10.37,2013-02-12 15:51:00,
2013-02-12 07:56:00,46.1,45.3,30.32,SW,216,3.5,3.5,97,0.00,CLR,,0.00,WeatherDisplay:10.37,2013-02-12 15:56:00,
2013-02-12 08:01:00,46.2,45.4,30.32,SSE,167,4.6,4.6,97,0.00,CLR,,0.00,WeatherDisplay:10.37,2013-02-12 16:01:00,
2013-02-12 08:06:00,46.2,45.4,30.32,South,181,6.0,6.0,97,0.00,CLR,,0.00,WeatherDisplay:10.37,2013-02-12 16:06:00,
2013-02-12 08:11:00,46.2,45.4,30.32,WSW,257,5.8,5.8,97,0.00,CLR,,0.00,WeatherDisplay:10.37,2013-02-12 16:11:00,
2013-02-12 08:16:00,46.4,45.6,30.33,South,181,0.0,0.0,97,0.00,CLR,,0.00,WeatherDisplay:10.37,2013-02-12 16:16:00,
2013-02-12 08:21:00,46.4,45.6,30.33,SSW,199,4.6,4.6,97,0.00,CLR,,0.00,WeatherDisplay:10.37,2013-02-12 16:21:00,
2013-02-12 08:26:00,46.3,45.5,30.33,SSW,198,9.2,9.2,97,0.00,CLR,,0.00,WeatherDisplay:10.37,2013-02-12 16:26:00,
2013-02-12 08:31:00,46.4,45.6,30.33,South,188,5.8,5.8,97,0.00,CLR,,0.00,WeatherDisplay:10.37,2013-02-12 16:31:00,
2013-02-12 08:36:00,46.4,45.6,30.33,South,189,5.8,5.8,97,0.00,CLR,,0.00,WeatherDisplay:10.37,2013-02-12 16:36:00,
2013-02-12 08:41:00,46.6,45.8,30.33,SSW,199,6.9,6.9,97,0.00,CLR,,0.00,WeatherDisplay:10.37,2013-02-12 16:41:00,
2013-02-12 08:46:00,46.5,45.7,30.33,SSW,193,8.1,8.1,97,0.00,CLR,,0.00,WeatherDisplay:10.37,2013-02-12 16:46:00,
2013-02-12 08:51:00,46.5,45.7,30.33,South,188,5.8,5.8,97,0.00,CLR,,0.00,WeatherDisplay:10.37,2013-02-12 16:51:00,
2013-02-12 08:56:00,46.6,45.8,30.33,SSE,151,6.9,6.9,97,0.00,CLR,,0.00,WeatherDisplay:10.37,2013-02-12 16:56:00,
2013-02-12 09:01:00,46.9,46.1,30.34,South,191,6.9,6.9,97,0.00,CLR,,0.00,WeatherDisplay:10.37,2013-02-12 17:01:00,
2013-02-12 09:06:00,47.2,46.1,30.34,South,184,8.1,8.1,96,0.00,CLR,,0.00,WeatherDisplay:10.37,2013-02-12 17:06:00,
2013-02-12 09:11:00,47.5,46.4,30.34,SSE,162,6.0,6.0,96,0.00,CLR,,0.00,WeatherDisplay:10.37,2013-02-12 17:11:00,
2013-02-12 09:16:00,47.8,46.7,30.34,South,178,8.1,8.1,96,0.00,CLR,,0.00,WeatherDisplay:10.37,2013-02-12 17:16:00,
2013-02-12 09:21:00,48.3,46.9,30.34,SSW,206,9.2,9.2,95,0.00,CLR,,0.00,WeatherDisplay:10.37,2013-02-12 17:21:00,
2013-02-12 09:26:00,48.8,47.4,30.33,SSE,164,6.9,6.9,95,0.00,CLR,,0.00,WeatherDisplay:10.37,2013-02-12 17:26:00,
2013-02-12 09:31:00,49.2,47.8,30.34,South,178,9.2,9.2,95,0.00,CLR,,0.00,WeatherDisplay:10.37,2013-02-12 17:31:00,
2013-02-12 09:36:00,48.9,47.2,30.34,South,191,10.4,10.4,94,0.00,CLR,,0.00,WeatherDisplay:10.37,2013-02-12 17:36:00,
2013-02-12 09:41:00,49.0,47.6,30.34,SSW,198,6.9,6.9,95,0.00,CLR,,0.00,WeatherDisplay:10.37,2013-02-12 17:41:00,
2013-02-12 09:46:00,49.3,47.6,30.34,South,185,9.2,9.2,94,0.00,CLR,,0.00,WeatherDisplay:10.37,2013-02-12 17:46:00,
2013-02-12 09:51:00,49.1,47.7,30.35,South,178,5.8,5.8,95,0.00,CLR,,0.00,WeatherDisplay:10.37,2013-02-12 17:51:00,
2013-02-12 09:56:00,49.3,47.9,30.35,SW,215,6.9,6.9,95,0.00,CLR,,0.00,WeatherDisplay:10.37,2013-02-12 17:56:00,
2013-02-12 10:01:00,49.4,47.7,30.35,South,184,8.0,8.0,94,0.00,CLR,,0.00,WeatherDisplay:10.37,2013-02-12 18:01:00,
2013-02-12 10:06:00,49.3,47.9,30.35,WSW,243,4.6,4.6,95,0.00,CLR,,0.00,WeatherDisplay:10.37,2013-02-12 18:06:00,
2013-02-12 10:11:00,49.3,47.9,30.35,South,169,5.8,5.8,95,0.00,CLR,,0.00,WeatherDisplay:10.37,2013-02-12 18:11:00,
2013-02-12 10:16:00,49.3,47.9,30.35,South,189,3.5,0.0,95,0.00,CLR,,0.00,WeatherDisplay:10.37,2013-02-12 18:16:00,
2013-02-12 10:21:00,49.5,48.1,30.35,SSW,195,3.2,3.2,95,0.00,CLR,,0.00,WeatherDisplay:10.37,2013-02-12 18:21:00,
2013-02-12 10:26:00,49.6,48.2,30.35,SSW,203,3.5,3.5,95,0.00,CLR,,0.00,WeatherDisplay:10.37,2013-02-12 18:26:00,
2013-02-12 10:31:00,49.7,48.3,30.36,South,169,3.5,3.5,95,0.00,CLR,,0.00,WeatherDisplay:10.37,2013-02-12 18:31:00,
2013-02-12 10:36:00,49.9,48.5,30.36,SW,232,5.8,5.8,95,0.00,CLR,,0.00,WeatherDisplay:10.37,2013-02-12 18:36:00,
2013-02-12 10:41:00,50.1,48.4,30.36,SSW,208,4.6,4.6,94,0.00,CLR,,0.00,WeatherDisplay:10.37,2013-02-12 18:41:00,
2013-02-12 10:46:00,50.5,48.8,30.36,SSE,148,6.9,6.9,94,0.00,CLR,,0.00,WeatherDisplay:10.37,2013-02-12 18:46:00,
2013-02-12 10:51:00,50.8,49.1,30.36,South,189,6.9,6.9,94,0.00,CLR,,0.00,WeatherDisplay:10.37,2013-02-12 18:51:00,
2013-02-12 10:56:00,51.8,49.5,30.36,SSW,195,8.1,8.1,92,0.00,CLR,,0.00,WeatherDisplay:10.37,2013-02-12 18:56:00,
2013-02-12 11:01:00,51.9,49.6,30.36,SSW,195,5.8,5.8,92,0.00,CLR,,0.00,WeatherDisplay:10.37,2013-02-12 19:01:00,
2013-02-12 11:06:00,51.9,49.6,30.36,South,189,5.8,5.8,92,0.00,CLR,,0.00,WeatherDisplay:10.37,2013-02-12 19:06:00,
2013-02-12 11:11:00,51.7,49.7,30.36,SW,224,2.3,2.3,93,0.00,CLR,,0.00,WeatherDisplay:10.37,2013-02-12 19:11:00,
2013-02-12 11:16:00,51.2,49.5,30.36,SSW,205,6.9,6.9,94,0.00,CLR,,0.00,WeatherDisplay:10.37,2013-02-12 19:16:00,
2013-02-12 11:21:00,51.3,49.9,30.36,South,178,8.1,8.1,95,0.00,CLR,,0.00,WeatherDisplay:10.37,2013-02-12 19:21:00,
2013-02-12 11:26:00,51.8,50.4,30.36,South,186,6.7,6.7,95,0.00,CLR,,0.00,WeatherDisplay:10.37,2013-02-12 19:26:00,
2013-02-12 11:31:00,51.7,50.3,30.36,South,182,5.8,5.8,95,0.00,CLR,,0.00,WeatherDisplay:10.37,2013-02-12 19:31:00,
2013-02-12 11:36:00,51.9,50.2,30.36,South,174,8.1,8.1,94,0.00,CLR,,0.00,WeatherDisplay:10.37,2013-02-12 19:36:00,
2013-02-12 11:41:00,52.8,51.1,30.36,South,188,7.2,7.2,94,0.00,CLR,,0.00,WeatherDisplay:10.37,2013-02-12 19:41:00,
2013-02-12 11:46:00,53.0,50.4,30.36,SSE,155,6.9,6.9,91,0.00,CLR,,0.00,WeatherDisplay:10.37,2013-02-12 19:46:00,
2013-02-12 11:51:00,52.9,50.6,30.35,South,191,9.2,9.2,92,0.00,CLR,,0.00,WeatherDisplay:10.37,2013-02-12 19:51:00,
2013-02-12 11:56:00,53.2,50.9,30.35,SSW,208,8.1,8.1,92,0.00,CLR,,0.00,WeatherDisplay:10.37,2013-02-12 19:56:00,
2013-02-12 12:01:00,53.3,50.4,30.35,SSW,199,8.8,8.8,90,0.00,CLR,,0.00,WeatherDisplay:10.37,2013-02-12 20:01:00,
2013-02-12 12:06:00,53.4,50.8,30.35,SSW,195,6.1,6.1,91,0.00,CLR,,0.00,WeatherDisplay:10.37,2013-02-12 20:06:00,
2013-02-12 12:11:00,53.3,50.1,30.35,South,172,9.2,9.2,89,0.00,CLR,,0.00,WeatherDisplay:10.37,2013-02-12 20:11:00,
2013-02-12 12:16:00,53.4,50.5,30.34,South,191,6.2,6.2,90,0.00,CLR,,0.00,WeatherDisplay:10.37,2013-02-12 20:16:00,
2013-02-12 12:21:00,53.8,50.6,30.34,SSW,196,6.9,6.9,89,0.00,CLR,,0.00,WeatherDisplay:10.37,2013-02-12 20:21:00,
2013-02-12 12:26:00,54.1,50.6,30.34,WSW,240,8.1,8.1,88,0.00,CLR,,0.00,WeatherDisplay:10.37,2013-02-12 20:26:00,
2013-02-12 12:31:00,53.9,50.7,30.34,SSW,199,6.9,6.9,89,0.00,CLR,,0.00,WeatherDisplay:10.37,2013-02-12 20:31:00,
2013-02-12 12:36:00,53.7,50.5,30.34,SSW,195,5.8,5.8,89,0.00,CLR,,0.00,WeatherDisplay:10.37,2013-02-12 20:36:00,
2013-02-12 12:41:00,53.8,50.6,30.33,SSE,150,4.6,4.6,89,0.00,CLR,,0.00,WeatherDisplay:10.37,2013-02-12 20:41:00,
2013-02-12 12:46:00,53.9,50.1,30.33,South,181,8.1,8.1,87,0.00,CLR,,0.00,WeatherDisplay:10.37,2013-02-12 20:46:00,
2013-02-12 12:51:00,53.7,49.9,30.33,South,189,8.1,8.1,87,0.00,CLR,,0.00,WeatherDisplay:10.37,2013-02-12 20:51:00,
2013-02-12 12:56:00,53.5,49.7,30.34,South,181,10.4,10.4,87,0.00,CLR,,0.00,WeatherDisplay:10.37,2013-02-12 20:56:00,
2013-02-12 13:01:00,53.9,50.4,30.34,South,188,5.8,5.8,88,0.00,CLR,,0.00,WeatherDisplay:10.37,2013-02-12 21:01:00,
2013-02-12 13:06:00,54.8,50.4,30.34,SSW,200,6.2,6.2,85,0.00,CLR,,0.00,WeatherDisplay:10.37,2013-02-12 21:06:00,
2013-02-12 13:11:00,54.9,50.2,30.34,SW,234,5.8,5.8,84,0.00,CLR,,0.00,WeatherDisplay:10.37,2013-02-12 21:11:00,
2013-02-12 13:16:00,55.3,50.2,30.34,West,267,5.8,5.8,83,0.00,CLR,,0.00,WeatherDisplay:10.37,2013-02-12 21:16:00,
2013-02-12 13:21:00,55.4,50.0,30.33,South,175,6.9,6.9,82,0.00,CLR,,0.00,WeatherDisplay:10.37,2013-02-12 21:21:00,
2013-02-12 13:26:00,55.7,50.6,30.33,South,186,6.7,6.7,83,0.00,CLR,,0.00,WeatherDisplay:10.37,2013-02-12 21:26:00,
2013-02-12 13:31:00,55.2,50.4,30.33,South,179,8.1,8.1,84,0.00,CLR,,0.00,WeatherDisplay:10.37,2013-02-12 21:31:00,
2013-02-12 13:36:00,54.8,49.7,30.33,SSW,195,4.6,4.6,83,0.00,CLR,,0.00,WeatherDisplay:10.37,2013-02-12 21:36:00,
2013-02-12 13:41:00,54.8,50.4,30.33,SSW,195,6.9,6.9,85,0.00,CLR,,0.00,WeatherDisplay:10.37,2013-02-12 21:41:00,
2013-02-12 13:46:00,55.1,50.7,30.33,SSW,206,3.5,3.5,85,0.00,CLR,,0.00,WeatherDisplay:10.37,2013-02-12 21:46:00,
2013-02-12 13:51:00,55.4,50.6,30.33,SSW,200,5.8,5.8,84,0.00,CLR,,0.00,WeatherDisplay:10.37,2013-02-12 21:51:00,
2013-02-12 13:56:00,55.4,50.0,30.33,SSW,213,5.8,5.8,82,0.00,CLR,,0.00,WeatherDisplay:10.37,2013-02-12 21:56:00,
2013-02-12 14:01:00,55.6,50.2,30.32,South,188,5.8,5.8,82,0.00,CLR,,0.00,WeatherDisplay:10.37,2013-02-12 22:01:00,
2013-02-12 14:06:00,55.3,49.9,30.32,SSW,193,5.8,5.8,82,0.00,CLR,,0.00,WeatherDisplay:10.37,2013-02-12 22:06:00,
2013-02-12 14:11:00,55.3,49.9,30.32,WSW,240,6.9,6.9,82,0.00,CLR,,0.00,WeatherDisplay:10.37,2013-02-12 22:11:00,
2013-02-12 14:16:00,55.6,49.9,30.32,SSW,212,3.5,3.5,81,0.00,CLR,,0.00,WeatherDisplay:10.37,2013-02-12 22:16:00,
2013-02-12 14:21:00,55.5,49.4,30.32,SSW,208,5.8,5.8,80,0.00,CLR,,0.00,WeatherDisplay:10.37,2013-02-12 22:21:00,
2013-02-12 14:26:00,55.6,49.2,30.32,West,268,3.5,3.5,79,0.00,CLR,,0.00,WeatherDisplay:10.37,2013-02-12 22:26:00,
2013-02-12 14:31:00,56.2,49.8,30.32,South,184,4.6,4.6,79,0.00,CLR,,0.00,WeatherDisplay:10.37,2013-02-12 22:31:00,
2013-02-12 14:36:00,56.2,49.4,30.32,South,179,5.8,5.8,78,0.00,CLR,,0.00,WeatherDisplay:10.37,2013-02-12 22:36:00,
2013-02-12 14:41:00,56.2,49.4,30.32,West,263,5.8,5.8,78,0.00,CLR,,0.00,WeatherDisplay:10.37,2013-02-12 22:41:00,
2013-02-12 14:46:00,56.5,49.7,30.32,WSW,241,3.5,3.5,78,0.00,CLR,,0.00,WeatherDisplay:10.37,2013-02-12 22:46:00,
2013-02-12 14:51:00,56.5,49.7,30.32,WSW,244,3.5,3.5,78,0.00,CLR,,0.00,WeatherDisplay:10.37,2013-02-12 22:51:00,
2013-02-12 14:57:00,56.5,50.1,30.32,WSW,241,3.0,3.0,79,0.00,CLR,,0.00,WeatherDisplay:10.37,2013-02-12 22:57:00,
2013-02-12 15:02:00,56.6,49.8,30.32,WSW,239,3.5,3.5,78,0.00,CLR,,0.00,WeatherDisplay:10.37,2013-02-12 23:02:00,
2013-02-12 15:07:00,56.7,50.3,30.32,SSW,212,6.3,6.3,79,0.00,CLR,,0.00,WeatherDisplay:10.37,2013-02-12 23:07:00,
2013-02-12 15:12:00,56.6,50.5,30.32,West,264,4.6,4.6,80,0.00,CLR,,0.00,WeatherDisplay:10.37,2013-02-12 23:12:00,
2013-02-12 15:17:00,56.7,50.3,30.32,SW,232,3.5,3.5,79,0.00,CLR,,0.00,WeatherDisplay:10.37,2013-02-12 23:17:00,
2013-02-12 15:22:00,56.7,49.9,30.32,SW,217,6.9,6.9,78,0.00,CLR,,0.00,WeatherDisplay:10.37,2013-02-12 23:22:00,
2013-02-12 15:27:00,56.2,50.1,30.32,West,275,4.6,4.6,80,0.00,CLR,,0.00,WeatherDisplay:10.37,2013-02-12 23:27:00,
2013-02-12 15:32:00,55.9,49.5,30.32,WNW,295,6.9,6.9,79,0.00,CLR,,0.00,WeatherDisplay:10.37,2013-02-12 23:32:00,
2013-02-12 15:37:00,56.0,49.9,30.32,West,261,3.5,3.5,80,0.00,CLR,,0.00,WeatherDisplay:10.37,2013-02-12 23:37:00,
2013-02-12 15:42:00,55.8,49.4,30.31,WSW,251,5.8,5.8,79,0.00,CLR,,0.00,WeatherDisplay:10.37,2013-02-12 23:42:00,
2013-02-12 15:47:00,55.8,49.7,30.32,WSW,240,2.3,2.3,80,0.00,CLR,,0.00,WeatherDisplay:10.37,2013-02-12 23:47:00,
2013-02-12 15:52:00,55.8,49.4,30.32,SW,230,3.5,3.5,79,0.00,CLR,,0.00,WeatherDisplay:10.37,2013-02-12 23:52:00,
2013-02-12 15:57:00,55.5,49.4,30.32,WSW,251,6.9,6.9,80,0.00,CLR,,0.00,WeatherDisplay:10.37,2013-02-12 23:57:00,
2013-02-12 16:02:00,55.3,49.2,30.32,West,277,4.6,4.6,80,0.00,CLR,,0.00,WeatherDisplay:10.37,2013-02-13 00:02:00,
2013-02-12 16:07:00,55.2,49.5,30.32,West,270,1.2,1.2,81,0.00,CLR,,0.00,WeatherDisplay:10.37,2013-02-13 00:07:00,
2013-02-12 16:12:00,55.2,49.5,30.32,WSW,256,2.3,2.3,81,0.00,CLR,,0.00,WeatherDisplay:10.37,2013-02-13 00:12:00,
2013-02-12 16:17:00,55.2,49.5,30.32,West,265,3.5,3.5,81,0.00,CLR,,0.00,WeatherDisplay:10.37,2013-02-13 00:17:00,
2013-02-12 16:22:00,55.1,49.7,30.32,West,265,0.0,0.0,82,0.00,CLR,,0.00,WeatherDisplay:10.37,2013-02-13 00:22:00,
2013-02-12 16:27:00,55.2,49.8,30.31,SSW,195,1.2,1.2,82,0.00,CLR,,0.00,WeatherDisplay:10.37,2013-02-13 00:27:00,
2013-02-12 16:32:00,55.3,49.9,30.32,WSW,248,0.0,0.0,82,0.00,CLR,,0.00,WeatherDisplay:10.37,2013-02-13 00:32:00,
2013-02-12 16:37:00,55.3,49.9,30.32,WSW,248,0.0,0.0,82,0.00,CLR,,0.00,WeatherDisplay:10.37,2013-02-13 00:37:00,
2013-02-12 16:42:00,55.1,49.4,30.32,West,267,4.6,4.6,81,0.00,CLR,,0.00,WeatherDisplay:10.37,2013-02-13 00:42:00,
2013-02-12 16:47:00,54.9,49.2,30.32,WNW,291,3.5,3.5,81,0.00,CLR,,0.00,WeatherDisplay:10.37,2013-02-13 00:47:00,
2013-02-12 16:52:00,54.5,48.8,30.32,WNW,285,4.6,4.6,81,0.00,CLR,,0.00,WeatherDisplay:10.37,2013-02-13 00:52:00,
2013-02-12 16:57:00,54.3,48.9,30.32,WSW,254,4.6,4.6,82,0.00,CLR,,0.00,WeatherDisplay:10.37,2013-02-13 00:57:00,
2013-02-12 17:02:00,54.2,48.8,30.32,WSW,258,2.3,2.3,82,0.00,CLR,,0.00,WeatherDisplay:10.37,2013-02-13 01:02:00,
2013-02-12 17:07:00,54.2,48.8,30.32,WSW,241,1.2,1.2,82,0.00,CLR,,0.00,WeatherDisplay:10.37,2013-02-13 01:07:00,
2013-02-12 17:12:00,54.2,48.8,30.32,SSW,203,0.0,0.0,82,0.00,CLR,,0.00,WeatherDisplay:10.37,2013-02-13 01:12:00,
2013-02-12 17:17:00,54.1,48.7,30.32,SSW,203,0.0,0.0,82,0.00,CLR,,0.00,WeatherDisplay:10.37,2013-02-13 01:17:00,
2013-02-12 17:22:00,54.0,49.0,30.32,SSW,200,1.2,0.0,83,0.00,CLR,,0.00,WeatherDisplay:10.37,2013-02-13 01:22:00,
2013-02-12 17:27:00,53.9,48.9,30.32,West,271,0.0,0.0,83,0.00,CLR,,0.00,WeatherDisplay:10.37,2013-02-13 01:27:00,
2013-02-12 17:32:00,53.7,49.0,30.32,West,271,0.0,0.0,84,0.00,CLR,,0.00,WeatherDisplay:10.37,2013-02-13 01:32:00,
2013-02-12 17:37:00,53.5,48.8,30.32,SW,229,2.3,2.3,84,0.00,CLR,,0.00,WeatherDisplay:10.37,2013-02-13 01:37:00,
2013-02-12 17:42:00,53.4,48.7,30.32,SSE,167,2.3,2.3,84,0.00,CLR,,0.00,WeatherDisplay:10.37,2013-02-13 01:42:00,
2013-02-12 17:47:00,53.3,48.6,30.32,SSE,167,0.0,0.0,84,0.00,CLR,,0.00,WeatherDisplay:10.37,2013-02-13 01:47:00,
2013-02-12 17:52:00,53.1,48.7,30.32,SSE,167,0.0,0.0,85,0.00,CLR,,0.00,WeatherDisplay:10.37,2013-02-13 01:52:00,
2013-02-12 17:57:00,53.1,48.7,30.32,South,189,3.5,3.5,85,0.00,CLR,,0.00,WeatherDisplay:10.37,2013-02-13 01:57:00,
2013-02-12 18:02:00,52.9,48.5,30.32,SW,220,2.3,2.3,85,0.00,CLR,,0.00,WeatherDisplay:10.37,2013-02-13 02:02:00,
2013-02-12 18:07:00,52.8,48.4,30.32,SW,230,1.7,1.7,85,0.00,CLR,,0.00,WeatherDisplay:10.37,2013-02-13 02:07:00,
2013-02-12 18:12:00,52.7,48.6,30.32,SW,222,0.0,0.4,86,0.00,CLR,,0.00,WeatherDisplay:10.37,2013-02-13 02:12:00,
2013-02-12 18:17:00,52.6,48.5,30.32,WSW,243,1.2,1.2,86,0.00,CLR,,0.00,WeatherDisplay:10.37,2013-02-13 02:17:00,
2013-02-12 18:22:00,52.4,48.3,30.32,SSW,200,1.2,0.0,86,0.00,CLR,,0.00,WeatherDisplay:10.37,2013-02-13 02:22:00,
2013-02-12 18:27:00,52.2,48.4,30.31,SW,233,3.5,0.0,87,0.00,CLR,,0.00,WeatherDisplay:10.37,2013-02-13 02:27:00,
2013-02-12 18:32:00,52.1,48.3,30.32,SW,220,2.3,2.3,87,0.00,CLR,,0.00,WeatherDisplay:10.37,2013-02-13 02:32:00,
2013-02-12 18:37:00,51.9,48.5,30.32,WSW,253,2.3,2.3,88,0.00,CLR,,0.00,WeatherDisplay:10.37,2013-02-13 02:37:00,
2013-02-12 18:42:00,51.8,48.4,30.32,SW,219,2.3,2.3,88,0.00,CLR,,0.00,WeatherDisplay:10.37,2013-02-13 02:42:00,
2013-02-12 18:47:00,51.9,48.5,30.32,SW,215,4.6,4.6,88,0.00,CLR,,0.00,WeatherDisplay:10.37,2013-02-13 02:47:00,
2013-02-12 18:52:00,51.8,48.4,30.32,SW,226,4.6,4.6,88,0.00,CLR,,0.00,WeatherDisplay:10.37,2013-02-13 02:52:00,
2013-02-12 18:57:00,51.9,48.5,30.32,West,260,2.3,2.3,88,0.00,CLR,,0.00,WeatherDisplay:10.37,2013-02-13 02:57:00,
2013-02-12 19:02:00,52.0,48.6,30.32,SW,224,2.3,2.3,88,0.00,CLR,,0.00,WeatherDisplay:10.37,2013-02-13 03:02:00,
2013-02-12 19:07:00,51.8,48.4,30.31,SSW,200,3.2,3.2,88,0.00,CLR,,0.00,WeatherDisplay:10.37,2013-02-13 03:07:00,
2013-02-12 19:12:00,51.8,48.4,30.31,SSW,202,2.3,2.3,88,0.00,CLR,,0.00,WeatherDisplay:10.37,2013-02-13 03:12:00,
2013-02-12 19:17:00,51.8,48.7,30.31,SW,219,2.3,0.0,89,0.00,CLR,,0.00,WeatherDisplay:10.37,2013-02-13 03:17:00,
2013-02-12 19:22:00,51.7,48.6,30.31,SW,217,1.2,1.2,89,0.00,CLR,,0.00,WeatherDisplay:10.37,2013-02-13 03:22:00,
2013-02-12 19:27:00,51.5,48.7,30.31,South,184,2.3,2.3,90,0.00,CLR,,0.00,WeatherDisplay:10.37,2013-02-13 03:27:00,
2013-02-12 19:32:00,51.5,48.7,30.31,SW,230,1.2,0.0,90,0.00,CLR,,0.00,WeatherDisplay:10.37,2013-02-13 03:32:00,
2013-02-12 19:37:00,51.3,48.5,30.32,SW,230,0.0,0.0,90,0.00,CLR,,0.00,WeatherDisplay:10.37,2013-02-13 03:37:00,
2013-02-12 19:42:00,51.3,48.5,30.32,SSW,193,0.0,0.1,90,0.00,CLR,,0.00,WeatherDisplay:10.37,2013-02-13 03:42:00,
2013-02-12 19:47:00,51.4,48.6,30.32,SSW,193,0.0,0.0,90,0.00,CLR,,0.00,WeatherDisplay:10.37,2013-02-13 03:47:00,
2013-02-12 19:52:00,51.4,48.6,30.32,SSW,205,0.0,0.0,90,0.00,CLR,,0.00,WeatherDisplay:10.37,2013-02-13 03:52:00,
2013-02-12 19:57:00,51.2,48.4,30.32,South,172,2.3,2.3,90,0.00,CLR,,0.00,WeatherDisplay:10.37,2013-02-13 03:57:00,
2013-02-12 20:02:00,51.2,48.4,30.32,SSE,152,0.0,0.0,90,0.00,CLR,,0.00,WeatherDisplay:10.37,2013-02-13 04:02:00,
2013-02-12 20:07:00,51.1,48.6,30.32,SSE,152,0.0,0.0,91,0.00,CLR,,0.00,WeatherDisplay:10.37,2013-02-13 04:07:00,
2013-02-12 20:12:00,51.1,48.6,30.32,SSE,152,0.0,0.0,91,0.00,CLR,,0.00,WeatherDisplay:10.37,2013-02-13 04:12:00,
2013-02-12 20:17:00,51.1,48.6,30.33,SSE,152,0.0,0.0,91,0.00,CLR,,0.00,WeatherDisplay:10.37,2013-02-13 04:17:00,
2013-02-12 20:22:00,51.0,48.5,30.33,SSE,152,0.0,0.0,91,0.00,CLR,,0.00,WeatherDisplay:10.37,2013-02-13 04:22:00,
2013-02-12 20:27:00,51.0,48.5,30.33,SSE,152,0.0,0.0,91,0.00,CLR,,0.00,WeatherDisplay:10.37,2013-02-13 04:27:00,
2013-02-12 20:32:00,51.0,48.5,30.33,SSE,152,0.0,0.0,91,0.00,CLR,,0.00,WeatherDisplay:10.37,2013-02-13 04:32:00,
2013-02-12 20:37:00,50.9,48.7,30.33,SSE,152,0.0,0.0,92,0.00,CLR,,0.00,WeatherDisplay:10.37,2013-02-13 04:37:00,
2013-02-12 20:42:00,50.7,48.5,30.32,SSE,152,0.0,0.0,92,0.00,CLR,,0.00,WeatherDisplay:10.37,2013-02-13 04:42:00,
2013-02-12 20:47:00,50.6,48.4,30.32,SSE,152,0.0,0.0,92,0.00,CLR,,0.00,WeatherDisplay:10.37,2013-02-13 04:47:00,
2013-02-12 20:52:00,50.6,48.4,30.32,SSE,152,0.0,0.0,92,0.00,CLR,,0.00,WeatherDisplay:10.37,2013-02-13 04:52:00,
2013-02-12 20:57:00,50.6,48.4,30.33,SSE,152,0.0,0.0,92,0.00,CLR,,0.00,WeatherDisplay:10.37,2013-02-13 04:57:00,
2013-02-12 21:00:00,50.6,48.4,30.33,SSE,152,0.0,0.0,92,0.00,CLR,,0.00,WeatherDisplay:10.37,2013-02-13 05:00:00,
2013-02-12 21:05:00,50.6,48.4,30.33,SSE,152,0.0,0.0,92,0.00,CLR,,0.00,WeatherDisplay:10.37,2013-02-13 05:05:00,
2013-02-12 21:10:00,50.5,48.3,30.33,SE,126,0.0,0.0,92,0.00,CLR,,0.00,WeatherDisplay:10.37,2013-02-13 05:10:00,
2013-02-12 21:15:00,50.5,48.3,30.33,SE,126,0.0,0.0,92,0.00,CLR,,0.00,WeatherDisplay:10.37,2013-02-13 05:15:00,
2013-02-12 21:20:00,50.4,48.2,30.33,SE,126,0.0,0.0,92,0.00,CLR,,0.00,WeatherDisplay:10.37,2013-02-13 05:20:00,
2013-02-12 21:25:00,50.6,48.4,30.32,SE,126,0.0,0.0,92,0.00,CLR,,0.00,WeatherDisplay:10.37,2013-02-13 05:25:00,
2013-02-12 21:30:00,50.6,48.1,30.32,SE,126,0.0,0.0,91,0.00,CLR,,0.00,WeatherDisplay:10.37,2013-02-13 05:30:00,
2013-02-12 21:35:00,50.6,48.1,30.33,SE,126,0.0,0.0,91,0.00,CLR,,0.00,WeatherDisplay:10.37,2013-02-13 05:35:00,
2013-02-12 21:40:00,50.7,48.2,30.33,SE,126,0.0,0.0,91,0.00,CLR,,0.00,WeatherDisplay:10.37,2013-02-13 05:40:00,
2013-02-12 21:45:00,50.7,48.2,30.33,SE,126,0.0,0.0,91,0.00,CLR,,0.00,WeatherDisplay:10.37,2013-02-13 05:45:00,
2013-02-12 21:50:00,50.6,48.1,30.33,SE,126,0.0,0.0,91,0.00,CLR,,0.00,WeatherDisplay:10.37,2013-02-13 05:50:00,
2013-02-12 21:55:00,50.6,48.1,30.33,SE,126,0.0,0.0,91,0.00,CLR,,0.00,WeatherDisplay:10.37,2013-02-13 05:55:00,
2013-02-12 22:00:00,50.4,48.2,30.33,SE,126,0.0,0.0,92,0.00,CLR,,0.00,WeatherDisplay:10.37,2013-02-13 06:00:00,
2013-02-12 22:05:00,50.3,48.1,30.33,SE,126,0.0,0.0,92,0.00,CLR,,0.00,WeatherDisplay:10.37,2013-02-13 06:05:00,
2013-02-12 22:10:00,50.2,48.0,30.33,SE,126,0.0,0.0,92,0.00,CLR,,0.00,WeatherDisplay:10.37,2013-02-13 06:10:00,
2013-02-12 22:15:00,50.0,47.8,30.33,SSW,202,2.3,2.3,92,0.00,CLR,,0.00,WeatherDisplay:10.37,2013-02-13 06:15:00,
2013-02-12 22:20:00,50.0,47.8,30.33,SSE,151,0.0,0.0,92,0.00,CLR,,0.00,WeatherDisplay:10.37,2013-02-13 06:20:00,
2013-02-12 22:25:00,50.0,47.8,30.33,SSE,167,1.6,1.6,92,0.00,CLR,,0.00,WeatherDisplay:10.37,2013-02-13 06:25:00,
2013-02-12 22:30:00,49.9,47.7,30.33,SSE,152,3.5,3.5,92,0.00,CLR,,0.00,WeatherDisplay:10.37,2013-02-13 06:30:00,
2013-02-12 22:35:00,49.8,47.6,30.33,SSE,167,0.0,0.0,92,0.00,CLR,,0.00,WeatherDisplay:10.37,2013-02-13 06:35:00,
2013-02-12 22:40:00,49.7,47.5,30.33,SSE,167,0.0,0.0,92,0.00,CLR,,0.00,WeatherDisplay:10.37,2013-02-13 06:40:00,
2013-02-12 22:45:00,49.6,47.4,30.33,South,169,3.5,3.5,92,0.00,CLR,,0.00,WeatherDisplay:10.37,2013-02-13 06:45:00,
2013-02-12 22:50:00,49.6,47.4,30.34,SSW,199,0.0,0.0,92,0.00,CLR,,0.00,WeatherDisplay:10.37,2013-02-13 06:50:00,
2013-02-12 22:55:00,49.4,47.2,30.33,SSW,199,0.0,0.0,92,0.00,CLR,,0.00,WeatherDisplay:10.37,2013-02-13 06:55:00,
2013-02-12 23:00:00,49.3,47.1,30.33,SSW,199,4.6,4.6,92,0.00,CLR,,0.00,WeatherDisplay:10.37,2013-02-13 07:00:00,
2013-02-12 23:05:00,49.5,47.0,30.33,SSW,198,2.3,2.3,91,0.00,CLR,,0.00,WeatherDisplay:10.37,2013-02-13 07:05:00,
2013-02-12 23:10:00,49.4,47.2,30.33,SW,215,2.3,2.3,92,0.00,CLR,,0.00,WeatherDisplay:10.37,2013-02-13 07:10:00,
2013-02-12 23:15:00,49.4,47.2,30.33,South,189,2.3,2.3,92,0.00,CLR,,0.00,WeatherDisplay:10.37,2013-02-13 07:15:00,
2013-02-12 23:20:00,49.3,47.1,30.33,South,189,0.0,0.0,92,0.00,CLR,,0.00,WeatherDisplay:10.37,2013-02-13 07:20:00,
2013-02-12 23:25:00,49.3,47.1,30.33,South,189,0.0,0.0,92,0.00,CLR,,0.00,WeatherDisplay:10.37,2013-02-13 07:25:00,
2013-02-12 23:30:00,49.1,46.9,30.32,SSW,195,1.5,1.5,92,0.00,CLR,,0.00,WeatherDisplay:10.37,2013-02-13 07:30:00,
2013-02-12 23:35:00,49.2,47.0,30.33,SW,223,0.0,0.0,92,0.00,CLR,,0.00,WeatherDisplay:10.37,2013-02-13 07:35:00,
2013-02-12 23:40:00,49.1,46.9,30.33,SSW,205,1.4,1.4,92,0.00,CLR,,0.00,WeatherDisplay:10.37,2013-02-13 07:40:00,
2013-02-12 23:45:00,49.2,47.0,30.33,South,181,3.8,3.8,92,0.00,CLR,,0.00,WeatherDisplay:10.37,2013-02-13 07:45:00,
2013-02-12 23:50:00,49.1,46.9,30.33,South,189,4.3,4.3,92,0.00,CLR,,0.00,WeatherDisplay:10.37,2013-02-13 07:50:00,
2013-02-12 23:55:00,49.2,47.0,30.33,SSW,202,5.8,5.8,92,0.00,CLR,,0.00,WeatherDisplay:10.37,2013-02-13 07:55:00,